{"data":{"norad_id":58794,"epoch":"2026-05-25T04:50:04.524000Z","epoch_age_seconds":47785,"freshness":"FRESH","line1":"1 58794U 24012H   26145.20144125 -.00001124  00000+0 -31320-4 0  9991","line2":"2 58794  42.9997  93.4676 0001810 178.1833 181.9025 15.27572343132934","mean_motion":15.27572343,"eccentricity":0.000181,"inclination_deg":42.9997,"raan_deg":93.4676,"arg_perigee_deg":178.1833,"mean_anomaly_deg":181.9025,"bstar":-3.132e-5,"rev_number":13293,"period_min":94.267221228422,"perigee_km":481.83014511468,"apogee_km":484.31390278135,"semimajor_km":6861.209023948,"source":"CELESTRAK","updated_at":"2026-05-25T13:38:18.749598Z"}}